Location: Napoli
(40.8639°N, 14.2562°E)
Time: 16:33:11
(UTC+02:00)

ISS - Visible Passes

Search period start: 22 September 2018 00:00
Search period end: 02 October 2018 00:00
Orbit: 403 x 408 km, 51.6° (Epoch: 22 September)

Date Brightness Start Highest point End Pass type
(mag) Time Alt. Az. Time Alt. Az. Time Alt. Az.
22 Sep -4.0 20:24:51 10° SW 20:28:07 72° SE 20:28:50 50° ENE visible
23 Sep -3.1 19:33:15 10° SSW 19:36:18 36° SE 19:39:22 10° ENE visible
23 Sep -1.8 21:09:53 10° W 21:12:17 28° NW 21:12:17 28° NW visible
24 Sep -2.9 20:17:38 10° WSW 20:20:49 48° NNW 20:22:49 20° NE visible
25 Sep -3.8 19:25:34 10° SW 19:28:52 87° NW 19:32:11 10° NE visible
25 Sep -1.4 21:03:18 10° WNW 21:05:45 19° NNW 21:05:53 19° NNW visible
26 Sep -1.8 20:10:47 10° W 20:13:37 26° NNW 20:16:08 12° NNE visible
27 Sep -2.5 19:18:25 10° W 19:21:32 39° NNW 19:24:40 10° NE visible
27 Sep -1.1 20:56:49 10° NW 20:58:43 14° N 20:58:57 14° N visible
28 Sep -1.3 20:04:12 10° WNW 20:06:29 17° NNW 20:08:47 10° NNE visible
29 Sep -1.0 20:50:08 10° NNW 20:51:43 13° N 20:51:43 13° N visible
30 Sep -1.2 19:57:38 10° NW 19:59:24 14° N 20:01:11 10° NNE visible
01 Oct -1.1 20:42:54 10° NNW 20:44:18 13° N 20:44:18 13° N visible
